Kosmos-2087

operational
NORAD ID: 20707 Int'l Des: 1990-064 Owner: PVO Country: SU
MEOELLIPTICALHEO_ELLIPTICALSEMI_SYNC

关于 Kosmos-2087

正在加载描述...

实时位置

正在加载3D地球...

即将过境

高度历史

Altitude vs Time

uPlot chart will show altitude changes over time

两行轨道根数

1 20707U 90064A 26047.21112535 -.00000368 00000-0 00000-0 0 9992
2 20707 67.7664 193.9966 6188757 27.8457 354.5143 2.00599525260406
Epoch: Feb 16, 2026 • Age: 382 hours

当前状态

高度 7373.9 km
速度 6.56 km/s
星下点 -40.67°S, 42.77°W
发射日期 Jul 25, 1990
运行时间 35.6 years
类型 other

技术详情

分类 Payload
质量 1250.00 kg
干质量 1150.00 kg
总质量 1250.00 kg
长度 4.00 m
直径 2.00 m
跨度 5.00 m
形状 Cyl + 2 Pan
制造商 NPOL/KOMET
平台类型 Oko
阶段状态 In Orbit
所有者/国家 PVO/SU

大型星座

Loading constellations...